Hourly Weather Barsi

Today, 18 April, Sunday

Time Temperature Precipitation Wind Pressure Humidity
00:00 +35°C° 0 mm 3 mps 714 mmHg 19%
01:00 +34°C° 0 mm 5 mps 714 mmHg 20%
02:00 +33°C° 0 mm 6 mps 714 mmHg 21%
03:00 +33°C° 0 mm 6 mps 714 mmHg 21%
04:00 +33°C° 0 mm 5 mps 714 mmHg 22%
05:00 +32°C° 0 mm 5 mps 714 mmHg 22%
06:00 +34°C° 0 mm 6 mps 715 mmHg 20%
07:00 +35°C° 0 mm 6 mps 716 mmHg 19%
08:00 +36°C° 0 mm 6 mps 716 mmHg 18%
09:00 +38°C° 0 mm 6 mps 716 mmHg 16%
10:00 +40°C° 0 mm 5 mps 716 mmHg 15%
11:00 +41°C° 0 mm 4 mps 716 mmHg 15%
12:00 +40°C° 0 mm 3 mps 715 mmHg 14%
13:00 +40°C° 0 mm 3 mps 714 mmHg 14%
14:00 +41°C° 0 mm 2 mps 713 mmHg 13%
15:00 +41°C° 0 mm 1 mps 713 mmHg 13%
16:00 +41°C° 0 mm 1 mps 713 mmHg 12%
17:00 +41°C° 0 mm 1 mps 712 mmHg 12%
18:00 +41°C° 0 mm 1 mps 713 mmHg 12%
19:00 +40°C° 0 mm 1 mps 713 mmHg 13%
20:00 +40°C° 0 mm 1 mps 713 mmHg 13%
21:00 +39°C° 0 mm 1 mps 713 mmHg 14%
22:00 +39°C° 0 mm 1 mps 714 mmHg 15%
23:00 +37°C° 0 mm 1 mps 714 mmHg 16%

Tomorrow, 19 April, Monday

Time Temperature Precipitation Wind Pressure Humidity
00:00 +37°C° 0 mm 3 mps 713 mmHg 18%
01:00 +36°C° 0 mm 4 mps 713 mmHg 21%
02:00 +34°C° 0 mm 5 mps 712 mmHg 24%
03:00 +34°C° 0 mm 5 mps 712 mmHg 24%
04:00 +34°C° 0 mm 4 mps 713 mmHg 24%
05:00 +33°C° 0 mm 4 mps 713 mmHg 24%
06:00 +34°C° 0 mm 4 mps 713 mmHg 22%
07:00 +35°C° 0 mm 5 mps 714 mmHg 20%
08:00 +36°C° 0 mm 6 mps 715 mmHg 17%
09:00 +38°C° 0 mm 6 mps 714 mmHg 16%
10:00 +39°C° 0 mm 5 mps 714 mmHg 14%
11:00 +41°C° 0 mm 5 mps 714 mmHg 13%
12:00 +41°C° 0 mm 4 mps 713 mmHg 13%
13:00 +42°C° 0 mm 3 mps 712 mmHg 12%
14:00 +42°C° 0 mm 3 mps 712 mmHg 12%
15:00 +41°C° 0 mm 2 mps 711 mmHg 12%
16:00 +41°C° 0 mm 2 mps 711 mmHg 11%
17:00 +42°C° 0 mm 2 mps 711 mmHg 11%
18:00 +41°C° 0 mm 2 mps 711 mmHg 12%
19:00 +40°C° 0 mm 3 mps 711 mmHg 13%
20:00 +40°C° 0 mm 3 mps 712 mmHg 13%
21:00 +38°C° 0 mm 4 mps 712 mmHg 18%
22:00 +38°C° 0 mm 6 mps 712 mmHg 23%
23:00 +35°C° 0 mm 8 mps 713 mmHg 28%

Day after tomorrow, 20 April, Tuesday

Time Temperature Precipitation Wind Pressure Humidity
00:00 +34°C° 0 mm 7 mps 712 mmHg 30%
01:00 +34°C° 0 mm 7 mps 712 mmHg 32%
02:00 +33°C° 0 mm 6 mps 711 mmHg 35%
03:00 +32°C° 0 mm 6 mps 711 mmHg 35%
04:00 +30°C° 0 mm 5 mps 712 mmHg 36%
05:00 +30°C° 0 mm 5 mps 712 mmHg 37%
06:00 +32°C° 0 mm 5 mps 712 mmHg 33%
07:00 +33°C° 0 mm 6 mps 713 mmHg 29%
08:00 +34°C° 0 mm 7 mps 714 mmHg 26%
09:00 +36°C° 0 mm 6 mps 714 mmHg 22%
10:00 +39°C° 0 mm 6 mps 714 mmHg 18%
11:00 +41°C° 0 mm 5 mps 714 mmHg 15%
12:00 +41°C° 0 mm 4 mps 713 mmHg 14%
13:00 +42°C° 0 mm 4 mps 712 mmHg 13%
14:00 +43°C° 0 mm 3 mps 711 mmHg 13%
15:00 +43°C° 0 mm 3 mps 711 mmHg 13%
16:00 +43°C° 0 mm 3 mps 711 mmHg 12%
17:00 +43°C° 0 mm 3 mps 710 mmHg 12%
18:00 +42°C° 0 mm 3 mps 711 mmHg 13%
19:00 +41°C° 0 mm 4 mps 711 mmHg 14%
20:00 +41°C° 0 mm 4 mps 712 mmHg 14%
21:00 +40°C° 0 mm 5 mps 712 mmHg 17%
22:00 +39°C° 0 mm 6 mps 712 mmHg 20%
23:00 +38°C° 0 mm 7 mps 712 mmHg 22%

21 April, Wednesday

Time Temperature Precipitation Wind Pressure Humidity
00:00 +36°C° 0 mm 6 mps 712 mmHg 22%
01:00 +35°C° 0 mm 6 mps 712 mmHg 22%
02:00 +34°C° 0 mm 6 mps 712 mmHg 22%
03:00 +34°C° 0 mm 6 mps 712 mmHg 24%
04:00 +33°C° 0 mm 5 mps 712 mmHg 26%
05:00 +32°C° 0 mm 5 mps 712 mmHg 27%
06:00 +33°C° 0 mm 5 mps 713 mmHg 26%
07:00 +34°C° 0 mm 5 mps 714 mmHg 24%
08:00 +35°C° 0 mm 6 mps 715 mmHg 23%
09:00 +38°C° 0 mm 6 mps 715 mmHg 20%
10:00 +39°C° 0 mm 6 mps 714 mmHg 18%
11:00 +41°C° 0 mm 6 mps 714 mmHg 16%
12:00 +42°C° 0 mm 5 mps 713 mmHg 15%
13:00 +42°C° 0 mm 4 mps 713 mmHg 14%
14:00 +43°C° 0 mm 3 mps 712 mmHg 13%
15:00 +43°C° 0 mm 3 mps 712 mmHg 13%
16:00 +43°C° 0 mm 3 mps 711 mmHg 13%
17:00 +43°C° 0 mm 3 mps 711 mmHg 13%
18:00 +42°C° 0 mm 3 mps 712 mmHg 14%
19:00 +40°C° 0 mm 3 mps 712 mmHg 15%
20:00 +40°C° 0 mm 4 mps 712 mmHg 16%
21:00 +39°C° 0 mm 5 mps 713 mmHg 19%
22:00 +38°C° 0 mm 7 mps 713 mmHg 22%
23:00 +35°C° 0 mm 9 mps 713 mmHg 26%

22 April, Thursday

Time Temperature Precipitation Wind Pressure Humidity
00:00 +35°C° 0 mm 7 mps 713 mmHg 25%
01:00 +35°C° 0 mm 6 mps 713 mmHg 25%
02:00 +34°C° 0 mm 4 mps 713 mmHg 25%
03:00 +34°C° 0 mm 4 mps 713 mmHg 25%
04:00 +33°C° 0 mm 4 mps 713 mmHg 25%
05:00 +33°C° 0 mm 4 mps 713 mmHg 25%
06:00 +34°C° 0 mm 4 mps 714 mmHg 23%
07:00 +35°C° 0 mm 5 mps 714 mmHg 21%
08:00 +36°C° 0 mm 5 mps 715 mmHg 19%
09:00 +37°C° 0 mm 5 mps 715 mmHg 18%
10:00 +38°C° 0 mm 4 mps 715 mmHg 16%
11:00 +41°C° 0 mm 4 mps 715 mmHg 15%
12:00 +40°C° 0 mm 3 mps 714 mmHg 15%
13:00 +41°C° 0 mm 2 mps 713 mmHg 14%
14:00 +41°C° 0 mm 2 mps 712 mmHg 14%
15:00 +41°C° 0 mm 2 mps 712 mmHg 13%
16:00 +41°C° 0 mm 2 mps 712 mmHg 13%
17:00 +42°C° 0 mm 2 mps 711 mmHg 13%
18:00 +42°C° 0 mm 3 mps 712 mmHg 13%
19:00 +41°C° 0 mm 4 mps 712 mmHg 13%
20:00 +41°C° 0 mm 6 mps 712 mmHg 14%
21:00 +40°C° 0 mm 6 mps 712 mmHg 14%
22:00 +39°C° 0 mm 6 mps 713 mmHg 15%
23:00 +38°C° 0 mm 6 mps 713 mmHg 16%

23 April, Friday

Time Temperature Precipitation Wind Pressure Humidity
00:00 +36°C° 0 mm 5 mps 712 mmHg 18%
01:00 +35°C° 0 mm 4 mps 712 mmHg 19%
02:00 +34°C° 0 mm 3 mps 712 mmHg 21%
03:00 +34°C° 0 mm 3 mps 712 mmHg 22%
04:00 +32°C° 0 mm 2 mps 712 mmHg 23%
05:00 +31°C° 0 mm 2 mps 713 mmHg 24%
06:00 +34°C° 0 mm 3 mps 713 mmHg 21%
07:00 +35°C° 0 mm 3 mps 714 mmHg 19%
08:00 +36°C° 0 mm 4 mps 714 mmHg 16%
09:00 +37°C° 0 mm 4 mps 714 mmHg 15%
10:00 +39°C° 0 mm 3 mps 714 mmHg 13%
11:00 +40°C° 0 mm 3 mps 714 mmHg 12%
12:00 +42°C° 0 mm 3 mps 713 mmHg 12%
13:00 +41°C° 0 mm 2 mps 712 mmHg 11%
14:00 +42°C° 0 mm 1 mps 712 mmHg 11%
15:00 +42°C° 0 mm 2 mps 711 mmHg 11%
16:00 +42°C° 0 mm 2 mps 711 mmHg 11%
17:00 +42°C° 0 mm 2 mps 711 mmHg 11%
18:00 +42°C° 0 mm 3 mps 711 mmHg 11%
19:00 +41°C° 0 mm 4 mps 712 mmHg 12%
20:00 +40°C° 0 mm 5 mps 712 mmHg 13%
21:00 +39°C° 0 mm 5 mps 712 mmHg 14%
22:00 +37°C° 0 mm 4 mps 712 mmHg 15%
23:00 +37°C° 0 mm 4 mps 712 mmHg 16%
Show more